Weather in Rudnichny

Russia / Kirov Oblast     59°36′59″N   52°28′20″E
temp.,
°C
wind,
m/s
gust,
m/s
humid.,
%
clouds,
%
prec.,
mm/h
press.,
hPa
HPBL,
m
17 april, sat
sat1700:000w11805 0.0 103010
03:000wnw228423 0.0 103129
06:00+2nw26785 0.0 1030169
09:00+7nw35615 0.0 1029911
12:00+9nw35507 0.0 10281432
15:00+10nw46475 0.0 10261741
18:00+7wnw266632 0.0 1025131
21:00+4nw3127879 0.0 1025374
18 april, sun
sun1800:00+3nw310815 0.0 1024288
03:00+2nnw4118736 0.0 1025528
06:00+1nne48796 0.0 1028901
09:00+2ne57515 0.0 10301201
12:00+4ne56417 0.0 10311716
15:00+5ne563793 0.0 10322039
18:00+3ne48465 0.0 1033592
21:00−1ne28661 0.0 1035221
19 april, mon
mon1900:00−2ne26680 0.0 1036185
03:00−2ne25710 0.0 1037173
06:00−1ene34590 0.0 1038326
09:00+3ene33380 0.0 10381337
12:00+5ene23293 0.0 10371568
15:00+6ne23270 0.0 10361563
18:00+3nne24444 0.0 103682
21:00−1ene22570 0.0 103721
20 april, tue
tue2000:00−1se11550 0.0 103710
03:00−1ssw11544 0.0 103710
06:00+1wsw11486 0.0 1037114
09:00+6w113511 0.0 1036841
12:00+9wnw01300 0.0 10351170
15:00+10w01280 0.0 10341239
18:00+7e11410 0.0 103310
21:00+4ese21500 0.0 103310
21 april, wed
wed2100:00+2sse22590 0.0 103313
03:000s22650 0.0 103315
06:00+3se25560 0.0 1032176
09:00+9sse473323 0.0 1031856
12:00+12sse57268 0.0 10291287
15:00+13sse582792 0.0 10271469
18:00+10sse41038100 0.0 1027537
21:00+7sse4144591 0.0 1027602